Location: Unspecified
(0.0000°N, 0.0000°E)
Time: 03:20:39
(UTC+00:00)

Vanguard 2 Rocket - Pass Details

Date: 21 December 2018
Orbit: 556 x 3325 km, 32.9° (Epoch: 18 March)

Event Time Altitude Azimuth Distance (km) Brightness Sun altitude
Rises 11:58:58 0° 307° (NW) 3,586 9.8 66.6°
Reaches altitude 10° 12:01:02 10° 308° (NW) 2,869 9.4 66.6°
Maximum altitude 12:08:12 85° 35° (NE) 1,535 9.4 66.4°
Drops below altitude 10° 12:21:31 10° 124° (SE) 5,064 11.0 65.9°
Sets 12:26:26 0° 124° (SE) 6,477 11.4 65.6°
